星链-3919 (STARLINK-3919 )

导读

STARLINK-3919是美国SpaceX公司星链(Starlink)项目的低轨互联网卫星,于2022年5月13日发射升空。作为星链星座的组成部分,它运行在近地轨道,参与构建全球覆盖的低轨卫星互联网,为偏远地区、基础设施薄弱区域提供高速低延迟的宽带接入服务,支撑星链网络规模扩张,推动全球互联网覆盖能力提升,是SpaceX打造全球卫星互联网组网的重要一环。

基本信息
目录编号:
52580
目录名称:
STARLINK-3919
国际标识:
2022-051AW
轨道中心:
EARTH
卫星名称:
星链-3919
卫星全名:
星链-3919 (STARLINK-3919 )
卫星状态:
在轨 (已飞行1496 天)
发射日期:
2022-05-13 UTC
国别 :
美国 (US)
星等 :
--
轨道信息
数据来源 国际轨道数据 AOE轨道数据
星历时间 2026-06-17T06:54:52+0800
14小时前
查看轨道信息
2026-06-15T00:00:00+0800
2天前
查看轨道信息
半长轴 6917.898km 6917.914km
偏心率 0.0001286 0.0001063
轨道倾角 53.160° 53.161°
近地点辐角 91.240° 111.545°
升交点赤经 48.417° 58.706°
平近点角 268.874° 53.223°
近地点 538.871km 539.041km
远地点 540.651km 540.513km
周期 95.438分钟 95.438分钟
每日圈数 15.088344 15.088291
详细信息
固有亮度:
5
最大亮度:
2.5
卫星平台:
Starlink v1.5
覆盖范围:
全球
运营商:
太空探索技术公司
运营商所在国:
美国
制造商(研发单位):
太空探索技术公司
制造商所在国:
美国
使用方式:
暂无
卫星简介
星链(Starlink)计划是由太空探索技术公司(SpaceX)提出的一个巨型低轨卫星互联网星座项目,计划在2019年至2024年间在太空搭建由约1.2万颗卫星组成的“星链”网络,其中1584颗将部署在地球上空550千米处的近地轨道,并从2020年开始工作。该卫星仍在工作。
2D轨道图
3D轨道图
轨道高度分析图
轨道倾角分析图
轨道综合分析图
查看轨道综合分析图